Weather History for MROC - May, 2013

Change the Weather History Date:

Friday, May 10, 2013

  Actual Average Record
Temperature  
Mean Temperature 76 °F -  
Max Temperature 85 °F 81 °F 88 °F (2015)
Min Temperature 67 °F 65 °F 61 °F (2012)
Cooling Degree Days 11    
Growing Degree Days 26 (Base 50)    
Moisture  
Dew Point 66 °F    
Average Humidity 79    
Maximum Humidity 94    
Minimum Humidity 42    
Precipitation  
Precipitation 0.16 in 0.36 in - ()
Sea Level Pressure  
Sea Level Pressure 30.01 in    
Wind  
Wind Speed 5 mph ()    
Max Wind Speed 12 mph    
Max Gust Speed -    
Visibility 6.0 miles    
Events Fog , Rain    
Averages and records for this station are not official NWS values.
T = Trace of Precipitation, MM = Missing Value Source: Averaged Metar Reports

Daily Weather History Graph

Daily Weather History Graph

Search for Another Location

Airport or City:

Trip Planner

Search our weather history database for the weather conditions in past years. The results will help you decide how hot, cold, wet, or windy it might be!

Date:

Astronomy

May. 10, 2013 Rise Set
Actual Time 5:16 AM CST 5:49 PM CST
Civil Twilight 4:54 AM CST 6:11 PM CST
Nautical Twilight 4:28 AM CST 6:37 PM CST
Astronomical Twilight 4:02 AM CST 7:04 PM CST
Moon 5:42 AM CST (5/10) 6:33 PM CST (5/10)
Length of Visible Light 13h 17m
Length of Day
12h 33m
New Moon, 1% of the Moon is Illuminated
May 10
New Moon
May 17
First Quarter
May 24
Full
May 31
Last Quarter
Jun 8
New

Hourly Weather History & Observations

Time (CST) Temp. Heat Index Dew Point Humidity Pressure Visibility Wind Dir Wind Speed Gust Speed Precip Events Conditions
12:00 AM 69 °F - 67 °F 90% 29.94 in 0 mi East 2.3 mph - -   Mist
12:00 AM 68.0 °F - 66.2 °F 94% 30.13 in 0.5 mi East 2.3 mph - N/A Fog Fog
1:00 AM - - - N/A% - 6.2 mi NE 2.3 mph - N/A   Scattered Clouds
2:00 AM 68.0 °F - 66.2 °F 94% 30.06 in - NNE 4.6 mph - N/A   Clear
3:00 AM 69 °F - 65 °F 85% 29.90 in 12 mi ENE 3.5 mph - -   Mostly Cloudy
3:00 AM 69.8 °F - 66.2 °F 88% 30.02 in - ENE 3.5 mph - N/A   Clear
4:00 AM 68.0 °F - 64.4 °F 88% 30.04 in - SE 2.3 mph - N/A   Clear
5:00 AM 68.0 °F - 64.4 °F 88% 30.05 in - East 4.6 mph - N/A   Clear
6:00 AM 69 °F - 63 °F 76% 29.89 in 12 mi ENE 6.9 mph - -   Clear
6:00 AM 69.8 °F - 62.6 °F 78% 30.05 in - ENE 6.9 mph - N/A   Clear
7:00 AM 75.2 °F - 62.6 °F 65% 30.06 in - East 6.9 mph - N/A   Clear
8:00 AM 77.0 °F - 64.4 °F 65% 30.07 in 6.2 mi ESE 8.1 mph - N/A   Scattered Clouds
9:00 AM 79 °F - 64 °F 52% 29.91 in 12 mi East 8.1 mph - -   Partly Cloudy
9:00 AM 78.8 °F - 64.4 °F 61% 30.08 in - North - - N/A   Scattered Clouds
10:00 AM 78.8 °F - 64.4 °F 61% 30.08 in 6.2 mi ESE 10.4 mph - N/A   Scattered Clouds
11:00 AM 78.8 °F - 64.4 °F 61% 30.07 in 6.2 mi East 9.2 mph - N/A   Scattered Clouds
12:00 PM 82 °F - 62 °F 42% 29.85 in 12 mi SE 9.2 mph - -   Partly Cloudy
12:00 PM 82.4 °F 83.4 °F 62.6 °F 51% 30.04 in 6.2 mi SE 9.2 mph - N/A   Scattered Clouds
1:00 PM 84.2 °F 85.0 °F 62.6 °F 48% 30.00 in 6.2 mi ESE 11.5 mph - N/A   Scattered Clouds
2:00 PM 80.6 °F 81.8 °F 62.6 °F 54% 30.00 in 6.2 mi South 5.8 mph - N/A   Mostly Cloudy
2:27 PM 77.0 °F - 68.0 °F 74% 29.99 in 6.2 mi SW 8.1 mph - N/A   Mostly Cloudy
3:00 PM 74 °F - 68 °F 76% 29.81 in 9 mi SW 11.5 mph - -   Overcast
3:00 PM 75.2 °F - 68.0 °F 78% 30.00 in 6.2 mi SW 11.5 mph - N/A   Mostly Cloudy
3:15 PM 71.6 °F - 68.0 °F 88% 30.00 in 3.1 mi WSW 8.1 mph - N/A Rain Rain
4:00 PM 71.6 °F - 68.0 °F 88% 30.01 in 1.9 mi WNW 4.6 mph - N/A Rain Light Rain
5:00 PM 69.8 °F - 68.0 °F 94% 30.01 in 2.5 mi West 5.8 mph - N/A   Drizzle
6:00 PM 70 °F - 68 °F 92% 29.88 in 2 mi WSW 3.5 mph - - Rain Heavy Rain
6:00 PM 69.8 °F - 68.0 °F 94% 30.03 in 1.6 mi WSW 3.5 mph - N/A Rain Heavy Rain
6:45 PM 69.8 °F - 68.0 °F 94% 30.03 in 5.0 mi WSW 3.5 mph - N/A Fog , Rain Light Rain
7:00 PM 69.8 °F - 68.0 °F 94% 30.06 in 5.0 mi NW 4.6 mph - N/A Fog , Rain Light Rain
7:45 PM 69.8 °F - 68.0 °F 94% 30.03 in 5.0 mi WSW 3.5 mph - N/A Fog , Rain Light Rain
8:00 PM 69.8 °F - 66.2 °F 88% 30.07 in 6.2 mi NNW 2.3 mph - N/A   Mostly Cloudy
9:00 PM 69 °F - 67 °F 89% 29.94 in 9 mi WNW 2.3 mph - -   Mist
9:00 PM 69.8 °F - 66.2 °F 88% 30.09 in 6.2 mi N/A N/A - N/A   Scattered Clouds
10:00 PM 68.0 °F - 66.2 °F 94% 30.11 in 6.2 mi Calm Calm - N/A   Scattered Clouds
11:00 PM 69.8 °F - 66.2 °F 88% 30.10 in - NNE 5.8 mph - N/A   Clear